Location: Lac Echo
(45.9375°N, 75.4580°W)
Time: 04:42:44
(UTC-04:00)

Amateur Radio Satellites - All Passes

Search period start: 27 September 2016 04:12
Search period end: 28 September 2016 04:12
Location: Lac Echo, 45.9375°N, 75.4580°W

Satellite Date Start Highest point End Downlink Frequencies (MHz)
Time Altitude Azimuth
SWISSCUBE 27 Sep 04:14:37 04:16:07 11° 273° (W) 04:17:37 437.505
YUBILEINY 27 Sep 04:14:38 04:23:23 69° 282° (WNW) 04:32:09 435.215
CUSAT 1 27 Sep 04:14:41 04:17:45 12° 47° (NE) 04:20:43 437.405
MOZHAYETS 4 27 Sep 04:22:23 04:26:48 48° 261° (W) 04:31:16
AIST 2 27 Sep 04:29:59 04:34:01 57° 121° (ESE) 04:38:06 435.215
Gurwin Techsat 1B 27 Sep 04:33:09 04:37:23 25° 298° (WNW) 04:41:36 435.225
ITAMSAT 1 27 Sep 04:33:52 04:39:04 70° 287° (WNW) 04:44:16 435.822/435.867
PCSat 27 Sep 04:34:39 04:39:28 34° 111° (ESE) 04:44:19 145.827
KKS-1 27 Sep 04:55:48 04:59:48 32° 263° (W) 05:03:49 437.445
AO-7 27 Sep 05:01:55 05:10:16 79° 107° (ESE) 05:18:35 29.400- 29.500
AO-85 27 Sep 05:07:46 05:11:19 24° 39° (NE) 05:14:39 145.980
AIST 1 27 Sep 05:09:23 05:13:09 29° 90° (E) 05:16:56
Cosmos 2491 27 Sep 05:12:41 05:16:02 13° 290° (WNW) 05:19:22 435.465 / 435.565
STARS 27 Sep 05:32:35 05:36:19 27° 265° (W) 05:40:03 437.465
DANDE 27 Sep 05:32:46 05:38:52 22° 57° (ENE) 05:44:55 436.750
CUBESAT XI-V 27 Sep 05:39:05 05:43:42 58° 260° (W) 05:48:24 437.345
BRITE-PL 27 Sep 05:46:08 05:49:56 22° 90° (E) 05:53:30 437.365/2234.400
RS-15 27 Sep 05:46:28 05:58:51 78° 240° (WSW) 06:10:57 29.354- 29.394
Cosmos 2504 27 Sep 05:47:27 05:54:22 42° 288° (WNW) 06:01:08 435.465 / 435.565
CUSAT 1 27 Sep 05:54:19 06:01:59 50° 70° (ENE) 06:08:37 437.405
HORYU 2 27 Sep 06:03:59 06:08:21 53° 101° (E) 06:12:43 437.375
AIST 2 27 Sep 06:09:35 06:12:49 22° 321° (NW) 06:16:05 435.215
NOAA 15 27 Sep 06:13:43 06:17:37 20° 92° (E) 06:21:29 137.62
ITAMSAT 1 27 Sep 06:15:49 06:17:37 12° 307° (NW) 06:19:24 435.822/435.867
YUBILEINY 27 Sep 06:16:56 06:22:06 17° 306° (NW) 06:27:18 435.215
PCSat 27 Sep 06:17:37 06:22:46 43° 311° (NW) 06:27:57 145.827
STRAND 1 27 Sep 06:18:36 06:22:39 24° 62° (ENE) 06:26:43 437.568
Cubesat XI-IV 27 Sep 06:26:09 06:30:15 22° 92° (E) 06:34:19 437.490
CUTE-I 27 Sep 06:26:36 06:30:44 22° 92° (E) 06:34:51 437.470
AIST 1 27 Sep 06:46:55 06:50:42 28° 288° (WNW) 06:54:31
AO-85 27 Sep 06:47:57 06:51:58 46° 241° (WSW) 06:55:44 145.980
AO-7 27 Sep 06:55:33 07:02:18 29° 308° (NW) 07:09:03 29.400- 29.500
O/OREOS (USA 219) 27 Sep 06:56:57 07:00:05 18° 100° (E) 07:03:14 437.305
NOAA 18 27 Sep 06:59:06 07:04:01 33° 97° (E) 07:08:55 137.9125
HO-68 27 Sep 07:10:52 07:11:25 10° 83° (E) 07:11:58 435.675
DANDE 27 Sep 07:14:33 07:22:58 80° 78° (ENE) 07:31:01 436.750
GOMX 1 27 Sep 07:17:59 07:22:30 75° 102° (ESE) 07:26:44 467.674
LilacSat-2 27 Sep 07:23:47 07:27:38 83° 103° (ESE) 07:31:28 437.200
BRITE-PL 27 Sep 07:24:01 07:28:42 44° 291° (WNW) 07:33:02 437.365/2234.400
CINEMA 3 27 Sep 07:28:19 07:28:46 10° 88° (E) 07:29:14 145.822/145.860
PRISM 27 Sep 07:31:49 07:33:01 11° 58° (ENE) 07:34:13 437.425
CUSAT 1 27 Sep 07:36:42 07:43:48 39° 273° (W) 07:49:59 437.405
HORYU 2 27 Sep 07:41:28 07:44:32 19° 298° (WNW) 07:47:37 437.375
DOVE 4 27 Sep 07:44:03 07:48:16 59° 100° (E) 07:52:21 437.250
NOAA 15 27 Sep 07:52:33 07:57:47 59° 290° (WNW) 08:02:58 137.62
STRAND 1 27 Sep 07:56:36 08:01:31 49° 260° (W) 08:06:30 437.568
CUTE 1.7 + AOD 2 27 Sep 07:58:48 08:01:41 17° 91° (E) 08:04:33 437.475
CANX-2 27 Sep 07:59:36 08:02:50 20° 92° (E) 08:06:02 2200.000
RS-15 27 Sep 08:00:56 08:09:14 22° 263° (W) 08:17:28 29.354- 29.394
SEEDS 27 Sep 08:02:36 08:04:41 13° 89° (E) 08:06:44 437.485
BEESAT 3 27 Sep 08:03:15 08:04:04 10° 28° (NNE) 08:04:53 437.485
PCSat 27 Sep 08:05:22 08:07:40 13° 334° (NNW) 08:09:58 145.827
Cubesat XI-IV 27 Sep 08:05:25 08:10:40 56° 290° (WNW) 08:15:53 437.490
CUTE-I 27 Sep 08:05:53 08:11:06 55° 290° (WNW) 08:16:19 437.470
AAUSAT CUBESAT 2 27 Sep 08:27:48 08:29:51 13° 89° (E) 08:31:53 437.432
O/OREOS (USA 219) 27 Sep 08:34:37 08:39:04 52° 299° (WNW) 08:43:35 437.305
GONETS M04 27 Sep 08:37:00 08:45:20 49° 88° (E) 08:53:42
CUBEBUG 2 27 Sep 08:39:40 08:42:37 18° 92° (E) 08:45:36 437.445
NOAA 18 27 Sep 08:39:41 08:44:43 39° 294° (WNW) 08:49:44 137.9125
HO-68 27 Sep 08:53:31 09:00:37 60° 102° (ESE) 09:07:40 435.675
BEESAT 2 27 Sep 08:55:53 08:58:13 15° 34° (NNE) 09:00:34 435.950
GOMX 1 27 Sep 08:57:50 08:59:55 13° 302° (WNW) 09:01:58 467.674
DANDE 27 Sep 08:58:23 09:04:57 27° 278° (W) 09:11:19 436.750
UWE-3 27 Sep 08:59:28 09:02:37 20° 93° (E) 09:05:48 435.000/436.395/437.385
Cosmos 2499 27 Sep 09:00:03 09:06:55 52° 91° (E) 09:13:43 435.465 / 435.565
CINEMA 3 27 Sep 09:02:18 09:06:28 77° 286° (WNW) 09:10:41 145.822/145.860
PRISM 27 Sep 09:03:28 09:07:39 87° 263° (W) 09:11:52 437.425
COMPASS 1 27 Sep 09:09:39 09:13:45 46° 99° (E) 09:17:48 437.405
UNISAT 6 27 Sep 09:16:10 09:19:05 18° 63° (ENE) 09:22:01 437.425
DOVE 4 27 Sep 09:23:07 09:25:30 15° 299° (WNW) 09:27:50 437.250
Oscar 11 27 Sep 09:30:09 09:33:46 25° 94° (E) 09:37:22 145.826/435.025
ZACube-1 27 Sep 09:30:24 09:34:03 26° 95° (E) 09:37:44 437.345
CUTE 1.7 + AOD 2 27 Sep 09:33:38 09:37:48 49° 288° (WNW) 09:41:56 437.475
CANX-2 27 Sep 09:34:48 09:38:52 41° 289° (WNW) 09:42:55 2200.000
NOAA 15 27 Sep 09:36:10 09:36:28 10° 309° (NW) 09:36:47 137.62
SEEDS 27 Sep 09:36:34 09:40:48 63° 286° (WNW) 09:45:01 437.485
BEESAT 3 27 Sep 09:38:49 09:42:41 47° 49° (NE) 09:46:32 437.485
ANTELSAT 27 Sep 09:50:22 09:54:18 38° 70° (ENE) 09:58:16 437.575/2403.000
DELFI C3 27 Sep 09:54:18 09:57:05 18° 92° (E) 09:59:50 145.870
HUMSAT D 27 Sep 10:00:00 10:01:08 11° 88° (E) 10:02:16 437.325/437.525
AAUSAT CUBESAT 2 27 Sep 10:01:34 10:05:45 62° 286° (WNW) 10:09:52 437.432
TIGRISAT 27 Sep 10:10:51 10:15:02 59° 73° (ENE) 10:19:13 435.000
JAS-2 27 Sep 10:13:31 10:17:58 19° 51° (NE) 10:22:42 435.910
CUBEBUG 2 27 Sep 10:15:23 10:19:28 46° 288° (WNW) 10:23:39 437.445
FUNcube-1 27 Sep 10:24:30 10:28:50 89° 111° (ESE) 10:33:14 145.935
BEESAT 2 27 Sep 10:32:38 10:36:41 82° 56° (NE) 10:40:42 435.950
GONETS M04 27 Sep 10:33:59 10:42:15 43° 290° (WNW) 10:50:38
UWE-3 27 Sep 10:35:12 10:39:15 43° 289° (WNW) 10:43:25 435.000/436.395/437.385
DUCHIFAT 1 27 Sep 10:38:40 10:41:20 17° 62° (ENE) 10:44:00 145.980
QB50P1 27 Sep 10:39:33 10:42:33 19° 64° (ENE) 10:45:34 145.935-145.965
HO-68 27 Sep 10:41:50 10:47:57 32° 302° (WNW) 10:54:02 435.675
COMPASS 1 27 Sep 10:46:00 10:48:59 19° 296° (WNW) 10:51:57 437.405
UNISAT 6 27 Sep 10:51:21 10:55:29 48° 261° (W) 10:59:38 437.425
POPSAT HIP 1 27 Sep 10:52:28 10:55:55 25° 66° (ENE) 10:59:22 437.405
Cosmos 2499 27 Sep 10:54:12 11:00:21 31° 292° (WNW) 11:06:31 435.465 / 435.565
Oscar 11 27 Sep 11:06:00 11:09:58 34° 291° (WNW) 11:13:54 145.826/435.025
ZACube-1 27 Sep 11:06:30 11:10:22 32° 291° (WNW) 11:14:15 437.345
NANOSAT C BR1 27 Sep 11:08:53 11:12:41 35° 69° (ENE) 11:16:30 145.865
AIST 2 27 Sep 11:11:30 11:14:03 15° 33° (NNE) 11:16:36 435.215
BEESAT 3 27 Sep 11:17:10 11:20:02 19° 247° (WSW) 11:22:54 437.485
PHONESAT 2.4 27 Sep 11:23:31 11:24:36 12° 156° (SSE) 11:25:42 2401.200-2431.200
ANTELSAT 27 Sep 11:27:53 11:31:10 21° 267° (W) 11:34:28 437.575/2403.000
DELFI C3 27 Sep 11:28:18 11:32:07 41° 289° (WNW) 11:35:53 145.870
QB50P2 27 Sep 11:31:10 11:35:21 68° 73° (ENE) 11:39:33 145.880/145.840
HUMSAT D 27 Sep 11:33:00 11:37:16 77° 285° (WNW) 11:41:32 437.325/437.525
POLYITAN 1 27 Sep 11:33:25 11:37:34 68° 74° (ENE) 11:41:46 437.675
PCSat 27 Sep 11:37:17 11:39:58 14° 28° (NNE) 11:42:38 145.827
Oscar 19 27 Sep 11:47:58 11:49:54 12° 54° (NE) 11:51:51 437.125/150
TIGRISAT 27 Sep 11:49:53 11:52:08 14° 270° (W) 11:54:23 435.000
JAS-2 27 Sep 11:55:12 12:01:43 78° 72° (ENE) 12:09:07 435.910
DX 1 27 Sep 12:01:13 12:01:48 10° 88° (E) 12:02:22 434.975-435.025
ESTCUBE 1 27 Sep 12:01:45 12:05:57 35° 97° (E) 12:10:05 437.505/2401.250
FUNcube-1 27 Sep 12:03:06 12:04:26 11° 301° (WNW) 12:05:46 145.935
VELOX 1 27 Sep 12:04:46 12:07:54 19° 92° (E) 12:11:01 145.980
CUBEBUG 1 27 Sep 12:10:23 12:14:06 27° 95° (E) 12:17:47 437.445
DUCHIFAT 1 27 Sep 12:12:33 12:16:38 52° 260° (W) 12:20:45 145.980
BEESAT 2 27 Sep 12:12:47 12:13:52 11° 251° (WSW) 12:14:57 435.950
QB50P1 27 Sep 12:14:01 12:18:02 44° 261° (W) 12:22:05 145.935-145.965
BUGSAT 1 27 Sep 12:17:40 12:21:47 75° 74° (ENE) 12:25:51 437.445
YUBILEINY 27 Sep 12:26:35 12:31:44 16° 54° (NE) 12:36:51 435.215
POPSAT HIP 1 27 Sep 12:27:46 12:31:34 32° 263° (W) 12:35:23 437.405
Gurwin Techsat 1B 27 Sep 12:38:46 12:42:06 17° 58° (ENE) 12:45:27 435.225
NANOSAT C BR1 27 Sep 12:45:09 12:48:30 23° 266° (W) 12:51:52 145.865
AIST 2 27 Sep 12:48:59 12:53:12 81° 54° (NE) 12:57:23 435.215
SPROUT 27 Sep 12:54:14 12:58:07 34° 97° (E) 13:02:00 437.525
AISAT 27 Sep 12:56:32 13:00:56 66° 102° (ESE) 13:05:17 437.250
PHONESAT 2.4 27 Sep 12:57:38 13:00:09 25° 172° (S) 13:02:39 2401.200-2431.200
M-CUBED/EXP-1 PRIME 27 Sep 12:57:43 13:00:34 27° 102° (ESE) 13:03:24 437.505
UKube-1 27 Sep 13:06:57 13:11:01 39° 98° (E) 13:15:03 .
50 SAT 27 Sep 13:09:18 13:13:00 87° 283° (WNW) 13:16:39 437.505
QB50P2 27 Sep 13:09:56 13:11:37 12° 271° (W) 13:13:19 145.880/145.840
POLYITAN 1 27 Sep 13:12:12 13:13:51 12° 271° (W) 13:15:30 437.675
PCSat 27 Sep 13:19:28 13:24:44 48° 51° (NE) 13:29:58 145.827
Oscar 19 27 Sep 13:23:09 13:28:20 73° 73° (ENE) 13:33:32 437.125/150
DX 1 27 Sep 13:34:13 13:38:35 83° 285° (WNW) 13:42:54 434.975-435.025
ESTCUBE 1 27 Sep 13:38:48 13:42:37 27° 294° (WNW) 13:46:25 437.505/2401.250
VELOX 1 27 Sep 13:40:23 13:44:38 47° 289° (WNW) 13:48:49 145.980
JAS-2 27 Sep 13:42:49 13:47:40 21° 274° (W) 13:52:56 435.910
Cosmos 2504 27 Sep 13:43:24 13:47:49 16° 59° (ENE) 13:52:19 435.465 / 435.565
CUBEBUG 1 27 Sep 13:46:33 13:50:23 31° 293° (WNW) 13:54:12 437.445
AUBIESAT-1 27 Sep 13:54:58 13:58:16 65° 290° (WNW) 14:01:32 437.475
BUGSAT 1 27 Sep 13:56:58 13:57:39 10° 272° (W) 13:58:19 437.445
AO-7 27 Sep 14:12:21 14:19:30 34° 54° (NE) 14:26:39 29.400- 29.500
ITAMSAT 1 27 Sep 14:15:39 14:20:14 33° 65° (ENE) 14:24:51 435.822/435.867
Gurwin Techsat 1B 27 Sep 14:16:06 14:21:24 80° 256° (WSW) 14:26:45 435.225
TISAT 1 27 Sep 14:16:38 14:20:44 53° 100° (E) 14:24:48 437.305
ITUPSAT 1 27 Sep 14:19:12 14:21:09 12° 88° (E) 14:23:07 437.325
Cosmos 2491 27 Sep 14:20:52 14:28:23 34° 83° (E) 14:35:58 435.465 / 435.565
YUBILEINY 27 Sep 14:21:43 14:30:27 69° 78° (ENE) 14:39:06 435.215
AIST 2 27 Sep 14:29:27 14:31:04 12° 251° (WSW) 14:32:40 435.215
SPROUT 27 Sep 14:30:27 14:33:55 25° 294° (WNW) 14:37:22 437.525
SWISSCUBE 27 Sep 14:31:29 14:34:50 19° 91° (E) 14:38:12 437.505
M-CUBED/EXP-1 PRIME 27 Sep 14:32:37 14:35:00 19° 300° (WNW) 14:37:22 437.505
PHONESAT 2.4 27 Sep 14:33:21 14:35:51 24° 189° (S) 14:38:20 2401.200-2431.200
AISAT 27 Sep 14:34:23 14:36:54 15° 300° (WNW) 14:39:24 437.250
UKube-1 27 Sep 14:43:28 14:46:50 23° 296° (WNW) 14:50:12 .
BEESAT 27 Sep 14:44:16 14:47:59 22° 93° (E) 14:51:42 436.000
PCSat 27 Sep 15:03:17 15:07:55 29° 250° (WSW) 15:12:31 145.827
Oscar 19 27 Sep 15:05:05 15:08:12 16° 271° (W) 15:11:20 437.125/150
DX 1 27 Sep 15:13:09 15:14:02 11° 303° (WNW) 15:14:55 434.975-435.025
SO-50 27 Sep 15:23:00 15:27:19 33° 116° (ESE) 15:31:37 436.795
Cosmos 2504 27 Sep 15:35:04 15:42:28 78° 81° (E) 15:50:21 435.465 / 435.565
TISAT 1 27 Sep 15:53:20 15:55:59 17° 298° (WNW) 15:58:37 437.305
ITUPSAT 1 27 Sep 15:54:46 15:59:37 83° 286° (WNW) 16:04:26 437.325
ITAMSAT 1 27 Sep 15:54:56 15:59:39 36° 263° (W) 16:04:25 435.822/435.867
Gurwin Techsat 1B 27 Sep 16:00:52 16:02:12 11° 274° (W) 16:03:33 435.225
AO-7 27 Sep 16:03:30 16:11:47 67° 255° (WSW) 16:20:04 29.400- 29.500
SWISSCUBE 27 Sep 16:08:17 16:12:59 55° 289° (WNW) 16:17:40 437.505
PHONESAT 2.4 27 Sep 16:10:33 16:11:22 11° 205° (SSW) 16:12:11 2401.200-2431.200
MOZHAYETS 4 27 Sep 16:14:50 16:19:02 32° 96° (E) 16:23:12
Cosmos 2491 27 Sep 16:16:04 16:24:43 60° 284° (WNW) 16:33:29 435.465 / 435.565
YUBILEINY 27 Sep 16:19:30 16:26:30 28° 279° (W) 16:33:29 435.215
BEESAT 27 Sep 16:21:24 16:25:59 46° 291° (WNW) 16:30:34 436.000
KKS-1 27 Sep 16:43:44 16:47:53 38° 98° (E) 16:52:01 437.445
AIST 1 27 Sep 16:50:33 16:54:53 89° 263° (W) 16:59:08
NOAA 18 27 Sep 16:50:43 16:53:25 14° 54° (NE) 16:56:06 137.9125
GOMX 1 27 Sep 16:51:52 16:55:07 17° 60° (ENE) 16:58:15 467.674
BRITE-PL 27 Sep 16:57:44 17:02:56 38° 68° (ENE) 17:08:03 437.365/2234.400
O/OREOS (USA 219) 27 Sep 17:02:52 17:07:25 54° 62° (ENE) 17:11:54 437.305
SO-50 27 Sep 17:03:13 17:07:45 40° 315° (NW) 17:12:15 436.795
HORYU 2 27 Sep 17:04:06 17:08:27 66° 73° (ENE) 17:12:51 437.375
DOVE 4 27 Sep 17:17:18 17:18:58 12° 59° (ENE) 17:20:38 437.250
STARS 27 Sep 17:18:38 17:22:49 43° 99° (E) 17:26:58 437.465
Cosmos 2504 27 Sep 17:29:47 17:35:03 21° 279° (W) 17:40:32 435.465 / 435.565
CUBESAT XI-V 27 Sep 17:33:23 17:37:30 29° 95° (E) 17:41:34 437.345
ITUPSAT 1 27 Sep 17:34:46 17:36:40 12° 304° (NW) 17:38:35 437.325
NOAA 15 27 Sep 17:35:43 17:40:41 42° 67° (ENE) 17:45:40 137.62
HO-68 27 Sep 17:41:42 17:45:02 14° 45° (NE) 17:48:21 435.675
Cubesat XI-IV 27 Sep 17:50:16 17:55:17 45° 68° (ENE) 18:00:20 437.490
CUTE-I 27 Sep 17:50:33 17:55:34 45° 68° (ENE) 18:00:39 437.470
MOZHAYETS 4 27 Sep 17:52:04 17:56:07 30° 293° (WNW) 18:00:10
AO-7 27 Sep 18:02:27 18:06:06 13° 275° (W) 18:09:48 29.400- 29.500
LilacSat-2 27 Sep 18:07:50 18:11:30 55° 74° (ENE) 18:15:13 437.200
RS-15 27 Sep 18:09:33 18:13:28 12° 91° (E) 18:17:26 29.354- 29.394
Cosmos 2491 27 Sep 18:19:26 18:23:49 14° 309° (NW) 18:28:15 435.465 / 435.565
KKS-1 27 Sep 18:20:43 18:24:15 24° 296° (WNW) 18:27:48 437.445
GOMX 1 27 Sep 18:27:12 18:32:37 81° 257° (WSW) 18:37:47 467.674
NOAA 18 27 Sep 18:27:45 18:33:13 79° 72° (ENE) 18:38:42 137.9125
CINEMA 3 27 Sep 18:31:17 18:33:45 15° 62° (ENE) 18:36:11 145.822/145.860
BRITE-PL 27 Sep 18:36:10 18:41:22 36° 265° (W) 18:46:30 437.365/2234.400
O/OREOS (USA 219) 27 Sep 18:43:16 18:46:23 18° 260° (W) 18:49:28 437.305
HORYU 2 27 Sep 18:43:17 18:45:28 13° 270° (W) 18:47:39 437.375
GONETS M04 27 Sep 18:44:11 18:51:30 28° 63° (ENE) 18:58:44
Cosmos 2499 27 Sep 18:47:17 18:52:56 22° 63° (ENE) 18:58:49 435.465 / 435.565
DANDE 27 Sep 18:47:39 18:49:15 11° 72° (ENE) 18:50:56 436.750
SO-50 27 Sep 18:47:40 18:49:31 12° 337° (NNW) 18:51:21 436.795
DOVE 4 27 Sep 18:50:58 18:55:59 81° 76° (ENE) 19:00:44 437.250
CUTE 1.7 + AOD 2 27 Sep 18:54:06 18:56:56 18° 63° (ENE) 18:59:47 437.475
CANX-2 27 Sep 18:54:55 18:58:03 20° 64° (ENE) 19:01:11 2200.000
STARS 27 Sep 18:55:36 18:58:54 21° 297° (WNW) 19:02:11 437.465
SEEDS 27 Sep 18:57:04 18:59:12 14° 61° (ENE) 19:01:19 437.485
CUSAT 1 27 Sep 18:57:30 19:03:22 40° 88° (E) 19:10:21 437.405
CUBESAT XI-V 27 Sep 19:10:39 19:14:53 34° 292° (WNW) 19:19:04 437.345
NOAA 15 27 Sep 19:15:59 19:20:34 29° 265° (W) 19:25:12 137.62
AAUSAT CUBESAT 2 27 Sep 19:20:50 19:22:50 13° 61° (ENE) 19:24:51 437.432
HO-68 27 Sep 19:24:19 19:31:17 57° 66° (ENE) 19:38:17 435.675
Cubesat XI-IV 27 Sep 19:31:06 19:35:33 27° 266° (W) 19:40:02 437.490
CUTE-I 27 Sep 19:31:23 19:35:49 27° 266° (W) 19:40:17 437.470
CUBEBUG 2 27 Sep 19:40:27 19:43:30 20° 65° (ENE) 19:46:33 437.445
LilacSat-2 27 Sep 19:44:44 19:46:11 12° 271° (W) 19:47:38 437.200
FUNcube-1 27 Sep 19:50:10 19:50:48 10° 58° (ENE) 19:51:27 145.935
UWE-3 27 Sep 19:59:10 20:02:17 21° 65° (ENE) 20:05:24 435.000/436.395/437.385
ISS 27 Sep 20:00:48 20:02:02 12° 132° (SE) 20:03:15 145.825
COMPASS 1 27 Sep 20:02:28 20:06:24 41° 70° (ENE) 20:10:23 437.405
STRAND 1 27 Sep 20:04:21 20:09:18 46° 99° (E) 20:14:15 437.568
CINEMA 3 27 Sep 20:06:01 20:10:28 64° 259° (WSW) 20:14:45 145.822/145.860
GOMX 1 27 Sep 20:09:43 20:11:22 11° 274° (W) 20:12:59 467.674
NOAA 18 27 Sep 20:11:17 20:14:30 16° 271° (W) 20:17:43 137.9125
RS-15 27 Sep 20:11:41 20:22:52 58° 114° (ESE) 20:34:37 29.354- 29.394
DANDE 27 Sep 20:24:59 20:30:12 71° 96° (E) 20:37:08 436.750
Oscar 11 27 Sep 20:27:14 20:30:51 27° 66° (ENE) 20:34:28 145.826/435.025
CUTE 1.7 + AOD 2 27 Sep 20:28:17 20:32:24 51° 261° (W) 20:36:34 437.475
ZACube-1 27 Sep 20:28:47 20:32:15 27° 67° (ENE) 20:35:45 437.345
CANX-2 27 Sep 20:29:36 20:33:37 43° 262° (W) 20:37:42 2200.000
SEEDS 27 Sep 20:30:10 20:34:21 69° 258° (WSW) 20:38:36 437.485
DOVE 4 27 Sep 20:31:54 20:34:10 13° 271° (W) 20:36:23 437.250
CUSAT 1 27 Sep 20:39:08 20:45:18 45° 291° (WNW) 20:52:40 437.405
Cosmos 2499 27 Sep 20:39:23 20:46:53 82° 263° (W) 20:54:59 435.465 / 435.565
GONETS M04 27 Sep 20:40:26 20:49:15 75° 265° (W) 20:57:57
DELFI C3 27 Sep 20:42:56 20:45:22 16° 63° (ENE) 20:47:47 145.870
PRISM 27 Sep 20:45:14 20:46:03 10° 88° (E) 20:46:52 437.425
AAUSAT CUBESAT 2 27 Sep 20:53:38 20:57:46 70° 258° (WSW) 21:01:58 437.432
HUMSAT D 27 Sep 20:54:13 20:55:24 11° 59° (ENE) 20:56:35 437.325/437.525
AO-85 27 Sep 21:03:34 21:08:10 33° 116° (ESE) 21:12:32 145.980
HO-68 27 Sep 21:13:08 21:19:21 31° 265° (W) 21:25:36 435.675
CUBEBUG 2 27 Sep 21:15:55 21:19:54 40° 262° (W) 21:23:50 437.445
FUNcube-1 27 Sep 21:22:15 21:26:22 89° 259° (W) 21:30:33 145.935
UWE-3 27 Sep 21:34:39 21:38:32 38° 262° (W) 21:42:26 435.000/436.395/437.385
ISS 27 Sep 21:34:45 21:38:00 74° 149° (SSE) 21:41:16 145.825
COMPASS 1 27 Sep 21:39:08 21:42:09 19° 268° (W) 21:45:12 437.405
STRAND 1 27 Sep 21:44:01 21:48:15 26° 297° (WNW) 21:52:28 437.568
TIGRISAT 27 Sep 22:02:38 22:03:05 10° 88° (E) 22:03:32 435.000
Oscar 11 27 Sep 22:03:00 22:06:52 32° 264° (W) 22:10:47 145.826/435.025
ZACube-1 27 Sep 22:04:52 22:08:30 29° 265° (W) 22:12:08 437.345
DANDE 27 Sep 22:09:35 22:14:00 22° 303° (WNW) 22:19:17 436.750
SO-50 27 Sep 22:12:18 22:14:53 15° 28° (NNE) 22:17:26 436.795
DELFI C3 27 Sep 22:15:53 22:19:47 52° 260° (W) 22:23:45 145.870
PRISM 27 Sep 22:17:44 22:21:53 76° 286° (WNW) 22:25:59 437.425
AISAT 27 Sep 22:23:48 22:24:35 10° 57° (ENE) 22:25:22 437.250
RS-15 27 Sep 22:24:02 22:35:35 56° 320° (NW) 22:47:41 29.354- 29.394
HUMSAT D 27 Sep 22:26:18 22:30:23 83° 259° (W) 22:34:32 437.325/437.525
CUSAT 1 27 Sep 22:28:00 22:29:43 11° 315° (NW) 22:31:28 437.405
Cosmos 2499 27 Sep 22:34:39 22:38:54 16° 283° (WNW) 22:43:18 435.465 / 435.565
GONETS M04 27 Sep 22:39:42 22:44:26 16° 287° (WNW) 22:49:11
UNISAT 6 27 Sep 22:40:21 22:44:08 27° 95° (E) 22:47:58 437.425
AO-85 27 Sep 22:43:42 22:48:35 43° 313° (NW) 22:53:08 145.980
DX 1 27 Sep 22:58:07 23:00:26 14° 59° (ENE) 23:02:45 434.975-435.025
ESTCUBE 1 27 Sep 23:03:21 23:07:38 43° 70° (ENE) 23:11:57 437.505/2401.250
VELOX 1 27 Sep 23:04:14 23:07:47 24° 64° (ENE) 23:11:21 145.980
JAS-2 27 Sep 23:04:52 23:07:56 12° 80° (E) 23:10:57 435.910
CUBEBUG 1 27 Sep 23:08:26 23:12:20 32° 68° (ENE) 23:16:15 437.445
AUBIESAT-1 27 Sep 23:09:20 23:12:24 22° 61° (ENE) 23:15:20 437.475
ISS 27 Sep 23:11:41 23:14:42 33° 349° (NNW) 23:17:45 145.825
ANTELSAT 27 Sep 23:15:22 23:19:44 62° 101° (ESE) 23:24:11 437.575/2403.000
TIGRISAT 27 Sep 23:35:57 23:40:21 86° 288° (WNW) 23:44:50 435.000
M-CUBED/EXP-1 PRIME 27 Sep 23:45:29 23:49:34 66° 68° (ENE) 23:53:20 437.505
50 SAT 27 Sep 23:47:56 23:51:30 56° 73° (ENE) 23:55:06 437.505
SPROUT 27 Sep 23:49:54 23:53:48 36° 69° (ENE) 23:57:42 437.525
SO-50 27 Sep 23:51:48 23:56:22 58° 49° (NE) 00:00:48 436.795
DUCHIFAT 1 27 Sep 23:54:43 23:57:49 20° 93° (E) 00:00:53 145.980
AISAT 27 Sep 23:55:50 00:00:17 79° 75° (ENE) 00:04:45 437.250
QB50P1 27 Sep 23:56:27 23:59:52 23° 94° (E) 00:03:16 145.935-145.965
UKube-1 28 Sep 00:03:30 00:07:38 46° 70° (ENE) 00:11:47 .
POPSAT HIP 1 28 Sep 00:09:42 00:13:29 31° 96° (E) 00:17:15 437.405
UNISAT 6 28 Sep 00:16:57 00:20:52 32° 292° (WNW) 00:24:50 437.425
NANOSAT C BR1 28 Sep 00:25:56 00:29:59 45° 99° (E) 00:34:01 145.865
Cosmos 2491 28 Sep 00:27:33 00:33:38 20° 56° (ENE) 00:39:39 435.465 / 435.565
AO-85 28 Sep 00:28:15 00:30:11 12° 334° (NNW) 00:32:05 145.980
DX 1 28 Sep 00:31:43 00:36:05 71° 258° (WSW) 00:40:28 434.975-435.025
VELOX 1 28 Sep 00:39:52 00:44:02 39° 262° (W) 00:48:14 145.980
RS-15 28 Sep 00:41:02 00:51:34 32° 352° (N) 01:02:18 29.354- 29.394
ESTCUBE 1 28 Sep 00:41:09 00:44:38 22° 267° (W) 00:48:08 437.505/2401.250
AUBIESAT-1 28 Sep 00:43:02 00:46:44 34° 256° (WSW) 00:50:13 437.475
CUBEBUG 1 28 Sep 00:44:49 00:48:37 28° 265° (W) 00:52:26 437.445
JAS-2 28 Sep 00:46:39 00:54:29 62° 100° (E) 01:01:58 435.910
ISS 28 Sep 00:48:45 00:51:45 31° 9° (N) 00:54:44 145.825
QB50P2 28 Sep 00:49:11 00:53:26 89° 265° (W) 00:57:39 145.880/145.840
POLYITAN 1 28 Sep 00:51:24 00:55:38 89° 277° (W) 00:59:52 437.675
ANTELSAT 28 Sep 00:53:20 00:56:01 16° 298° (WNW) 00:58:43 437.575/2403.000
BEESAT 3 28 Sep 01:08:44 01:12:18 35° 118° (ESE) 01:15:55 437.485
TISAT 1 28 Sep 01:10:17 01:14:22 54° 72° (ENE) 01:18:27 437.305
TIGRISAT 28 Sep 01:15:13 01:16:22 11° 302° (WNW) 01:17:31 435.000
M-CUBED/EXP-1 PRIME 28 Sep 01:22:46 01:24:22 12° 263° (W) 01:25:55 437.505
50 SAT 28 Sep 01:24:17 01:25:21 11° 271° (W) 01:26:26 437.505
SPROUT 28 Sep 01:26:24 01:29:49 23° 266° (W) 01:33:15 437.525
ITUPSAT 1 28 Sep 01:27:38 01:31:06 20° 62° (ENE) 01:34:36 437.325
DUCHIFAT 1 28 Sep 01:29:44 01:33:40 40° 290° (WNW) 01:37:35 145.980
QB50P1 28 Sep 01:31:54 01:35:43 34° 292° (WNW) 01:39:31 145.935-145.965
BUGSAT 1 28 Sep 01:32:10 01:36:12 88° 287° (WNW) 01:40:14 437.445
Oscar 19 28 Sep 01:33:02 01:36:55 21° 92° (E) 01:40:45 437.125/150
SO-50 28 Sep 01:33:10 01:36:24 19° 248° (WSW) 01:39:34 436.795
YUBILEINY 28 Sep 01:34:08 01:38:40 15° 73° (ENE) 01:43:11 435.215
AISAT 28 Sep 01:35:52 01:37:19 11° 272° (W) 01:38:46 437.250
SWISSCUBE 28 Sep 01:40:02 01:44:05 29° 65° (ENE) 01:48:10 437.505
UKube-1 28 Sep 01:40:50 01:43:54 19° 267° (W) 01:46:59 .
POPSAT HIP 1 28 Sep 01:45:40 01:49:10 26° 294° (WNW) 01:52:40 437.405
BEESAT 28 Sep 01:52:46 01:57:02 34° 66° (ENE) 02:01:19 436.000
NANOSAT C BR1 28 Sep 02:02:26 02:05:25 19° 296° (WNW) 02:08:23 145.865
BEESAT 2 28 Sep 02:03:46 02:07:41 67° 123° (ESE) 02:11:40 435.950
Cosmos 2491 28 Sep 02:23:11 02:32:06 80° 80° (E) 02:40:56 435.465 / 435.565
ISS 28 Sep 02:25:14 02:28:32 89° 25° (NNE) 02:31:49 145.825
QB50P2 28 Sep 02:27:37 02:28:33 11° 302° (WNW) 02:29:28 145.880/145.840
POLYITAN 1 28 Sep 02:29:51 02:30:45 11° 302° (WNW) 02:31:39 437.675
Gurwin Techsat 1B 28 Sep 02:30:02 02:34:51 34° 96° (E) 02:39:38 435.225
JAS-2 28 Sep 02:32:08 02:39:01 35° 300° (WNW) 02:45:44 435.910
BEESAT 3 28 Sep 02:46:37 02:50:01 27° 317° (NW) 02:53:28 437.485
TISAT 1 28 Sep 02:47:53 02:50:20 15° 269° (W) 02:52:47 437.305
RS-15 28 Sep 02:57:03 03:08:28 40° 26° (NNE) 03:19:51 29.354- 29.394
ITUPSAT 1 28 Sep 03:03:54 03:08:34 54° 259° (W) 03:13:17 437.325
Oscar 19 28 Sep 03:11:32 03:16:35 55° 290° (WNW) 03:21:34 437.125/150
SWISSCUBE 28 Sep 03:17:23 03:21:45 36° 263° (W) 03:26:11 437.505
MOZHAYETS 4 28 Sep 03:18:52 03:23:08 40° 69° (ENE) 03:27:27
YUBILEINY 28 Sep 03:25:06 03:33:50 73° 94° (E) 03:42:33 435.215
BEESAT 28 Sep 03:30:38 03:34:49 30° 264° (W) 03:39:01 436.000
BEESAT 2 28 Sep 03:43:05 03:45:55 18° 323° (NW) 03:48:47 435.950
KKS-1 28 Sep 03:43:50 03:48:07 48° 70° (ENE) 03:52:24 437.445
AO-85 28 Sep 03:53:55 03:55:31 12° 25° (NNE) 03:57:06 145.980
ISS 28 Sep 04:02:36 04:04:37 15° 225° (SW) 04:06:37 145.825
